Weather History for KMEH - February, 2014

Change the Weather History Date:

Wednesday, February 26, 2014

  Actual Average Record
Temperature  
Mean Temperature 30 °F -  
Max Temperature 33 °F 37 °F 51 °F (2005)
Min Temperature 26 °F 17 °F -25 °F (2011)
Degree Days  
Heating Degree Days 36    
Moisture  
Dew Point 27 °F    
Average Humidity 94    
Maximum Humidity 100    
Minimum Humidity 89    
Precipitation  
Precipitation 0.00 in - - ()
Sea Level Pressure  
Sea Level Pressure 29.97 in    
Wind  
Wind Speed 0 mph (WNW)    
Max Wind Speed 5 mph    
Max Gust Speed -    
Visibility 3 miles    
Events Fog    
Averages and records for this station are not official NWS values.
T = Trace of Precipitation, MM = Missing Value Source: NWS Daily Summary

Daily Weather History Graph

Daily Weather History Graph

Search for Another Location

Airport or City:

Trip Planner

Search our weather history database for the weather conditions in past years. The results will help you decide how hot, cold, wet, or windy it might be!

Date:

Astronomy

Feb. 26, 2014 Rise Set
Actual Time 6:37 AM PST 5:36 PM PST
Civil Twilight 6:07 AM PST 6:06 PM PST
Nautical Twilight 5:33 AM PST 6:40 PM PST
Astronomical Twilight 4:58 AM PST 7:15 PM PST
Moon 4:33 AM PST (2/26) 2:51 PM PST (2/26)
Length of Visible Light 11h 59m
Length of Day
10h 59m
Waning Crescent, 9% of the Moon is Illuminated
Feb 26
Waning Crescent
Mar 1
New
Mar 8
First Quarter
Mar 16
Full
Mar 23
Last Quarter

Hourly Weather History & Observations

Time (PST) Temp. Windchill Dew Point Humidity Pressure Visibility Wind Dir Wind Speed Gust Speed Precip Events Conditions
12:20 AM 28.0 °F - 26.1 °F 92% 30.07 in 0.5 mi Calm Calm - N/A Fog Light Freezing Fog
12:56 AM 28.0 °F - 26.1 °F 92% 30.16 in 0.5 mi Calm Calm - N/A Fog Light Freezing Fog
1:44 AM 28.0 °F - 27.0 °F 96% 30.06 in 1.2 mi Calm Calm - N/A   Overcast
1:56 AM 28.0 °F - 26.1 °F 92% 30.14 in 1.8 mi Calm Calm - N/A   Overcast
2:10 AM 28.0 °F - 26.1 °F 92% 30.05 in 2.0 mi Calm Calm - N/A   Overcast
2:17 AM 28.0 °F - 26.1 °F 92% 30.04 in 1.5 mi Calm Calm - N/A   Overcast
2:31 AM 28.0 °F - 26.1 °F 92% 30.04 in 0.8 mi Calm Calm - N/A   Mist
2:56 AM 28.0 °F - 27.0 °F 96% 30.12 in 0.5 mi Calm Calm - N/A Fog Light Freezing Fog
3:48 AM 27.0 °F - 26.1 °F 96% 30.02 in 1.2 mi Calm Calm - N/A   Overcast
3:56 AM 27.0 °F - 26.1 °F 96% 30.11 in 1.2 mi Calm Calm - N/A   Overcast
4:56 AM 27.0 °F - 26.1 °F 96% 30.12 in 1.0 mi Calm Calm - N/A   Overcast
5:16 AM 27.0 °F - 25.0 °F 92% 30.01 in 0.8 mi Calm Calm - N/A   Mist
5:27 AM 27.0 °F - 26.1 °F 96% 30.01 in 1.2 mi Calm Calm - N/A   Overcast
5:43 AM 28.0 °F - 26.1 °F 92% 30.01 in 2.5 mi Calm Calm - N/A   Overcast
5:56 AM 27.0 °F - 26.1 °F 96% 30.10 in 2.5 mi Calm Calm - N/A   Overcast
6:26 AM 28.0 °F - 26.1 °F 92% 29.99 in 1.8 mi Calm Calm - N/A   Overcast
6:39 AM 28.0 °F - 26.1 °F 92% 29.99 in 2.0 mi Calm Calm - N/A   Overcast
6:54 AM 26.6 °F - 26.6 °F 100% 29.99 in 0.8 mi Calm Calm - N/A   Overcast
6:56 AM 27.0 °F - 26.1 °F 96% 30.08 in 0.8 mi Calm Calm - N/A   Overcast
7:16 AM 28.0 °F - 26.1 °F 92% 29.99 in 1.2 mi Calm Calm - N/A   Overcast
7:56 AM 28.0 °F - 26.1 °F 92% 30.08 in 0.5 mi Calm Calm - N/A Fog Light Freezing Fog
8:19 AM 28.9 °F - 26.1 °F 89% 29.98 in 1.8 mi Calm Calm - N/A   Overcast
8:26 AM 28.9 °F - 27.0 °F 92% 29.98 in 2.5 mi Calm Calm - N/A   Overcast
8:33 AM 28.9 °F - 27.0 °F 92% 29.98 in 4.0 mi Calm Calm - N/A   Overcast
8:56 AM 28.9 °F - 27.0 °F 92% 30.07 in 7.0 mi Calm Calm - N/A   Overcast
9:56 AM 28.9 °F - 27.0 °F 92% 30.07 in 9.0 mi Calm Calm - N/A   Overcast
10:56 AM 30.0 °F - 28.0 °F 92% 30.05 in 9.0 mi Calm Calm - N/A   Overcast
11:56 AM 32.0 °F - 30.9 °F 96% 30.02 in 10.0 mi Calm Calm - N/A   Overcast
12:56 PM 33.1 °F 28.7 °F 30.9 °F 92% 29.99 in 7.0 mi WNW 4.6 mph - N/A   Overcast
1:56 PM 30.9 °F - 30.0 °F 96% 29.98 in 2.5 mi Calm Calm - N/A   Overcast
2:04 PM 30.9 °F 27.5 °F 30.0 °F 96% 29.90 in 1.0 mi WNW 3.5 mph - N/A   Overcast
2:13 PM 30.0 °F 26.5 °F 28.9 °F 96% 29.90 in 0.8 mi Variable 3.5 mph - N/A   Overcast
2:56 PM 30.0 °F - 28.0 °F 92% 29.96 in 0.5 mi Calm Calm - N/A Fog Light Freezing Fog
3:56 PM 30.9 °F - 28.9 °F 92% 29.94 in 0.2 mi Calm Calm - N/A Fog Light Freezing Fog
4:05 PM 30.9 °F 27.5 °F 28.9 °F 92% 29.85 in 0.5 mi West 3.5 mph - N/A Fog Light Freezing Fog
4:25 PM 30.0 °F - 28.9 °F 96% 29.86 in 1.0 mi Calm Calm - N/A   Overcast
4:44 PM 30.0 °F - 28.9 °F 96% 29.85 in 0.8 mi Calm Calm - N/A   Overcast
4:56 PM 30.0 °F - 28.9 °F 96% 29.93 in 0.8 mi Calm Calm - N/A   Overcast
5:56 PM 28.9 °F - 28.0 °F 96% 29.90 in 1.0 mi Calm Calm - N/A   Mist
6:35 PM 30.0 °F - 28.0 °F 92% 29.80 in 0.8 mi Calm Calm - N/A   Mist
6:51 PM 30.2 °F - 28.4 °F 93% 29.80 in 1.2 mi Calm Calm - N/A   Overcast
6:56 PM 30.0 °F - 28.9 °F 96% 29.88 in 2.5 mi Calm Calm - N/A   Overcast
7:03 PM 30.0 °F - 28.9 °F 96% 29.80 in 5.0 mi Calm Calm - N/A   Overcast
7:56 PM 28.9 °F - 27.0 °F 92% 29.86 in 8.0 mi Calm Calm - N/A   Mostly Cloudy
8:35 PM 28.0 °F - 26.1 °F 92% 29.78 in 10.0 mi Calm Calm - N/A   Scattered Clouds
8:56 PM 27.0 °F - 25.0 °F 92% 29.86 in 10.0 mi Calm Calm - N/A   Scattered Clouds
9:56 PM 26.1 °F - 24.1 °F 92% 29.84 in 10.0 mi Calm Calm - N/A   Mostly Cloudy
10:34 PM 26.1 °F - 24.1 °F 92% 29.75 in 10.0 mi Calm Calm - N/A   Mostly Cloudy
10:56 PM 26.1 °F - 24.1 °F 92% 29.82 in 10.0 mi Calm Calm - N/A   Overcast
11:56 PM 28.0 °F - 26.1 °F 92% 29.78 in 10.0 mi Calm Calm - N/A   Overcast